[[{"header":{"parameterUnit":"m.s-1","parameterCategory":1,"la1":30.2991,"la2":30.254,"lo1":-89.0895,"lo2":-89.0444,"dy":0.0017,"dx":0.0017,"nx":28,"ny":28,"refTime":"2024-12-11T03:00:00:Z","depth":0,"parameterNumber":2,"parameterNumberName":"U-component_of_WINDS"},"data":[0,0,0,0,0,0,0,0,0,0,0,0,0,0,0,0,0,0,0,0,0,0,0,0,0,0,0,0,0,0,0,0,0,0,0,0,0,0,0,0,0,0,0,0,0,0,0,0,0,0,0,0,0,0,0,0,0,0,-2.7775,-2.7775,0,-2.7768,-2.7768,-2.7768,-2.7672,-2.7669,-2.7667,-2.7665,-2.7661,-2.7663,-2.7666,0,0,0,0,0,0,0,0,0,0,0,0,0,-2.7707,-2.7709,-2.7775,-2.7775,-2.7775,-2.7768,-2.7768,-2.7768,-2.7672,-2.7669,-2.7666,-2.7663,-2.7661,-2.7663,-2.7666,0,0,0,0,0,0,0,0,0,0,0,0,0,-2.7722,-2.7709,-2.7775,-2.7726,-2.7721,-2.7768,-2.7768,-2.7768,-2.7673,-2.7669,-2.7666,-2.7662,-2.766,-2.7663,-2.7666,-2.776,0,0,-2.7676,-2.7678,0,0,0,0,0,0,0,0,-2.7722,-2.7725,-2.7733,-2.7729,-2.7724,-2.7717,-2.7743,-2.7766,-2.7674,-2.7692,-2.7665,-2.766,-2.7683,-2.7684,-2.7691,-2.776,-2.776,-2.7676,-2.7678,-2.768,-2.7681,0,0,0,0,0,0,0,-2.7721,-2.7725,-2.7772,-2.7733,-2.7728,-2.7705,-2.7703,-2.7747,-2.7708,-2.769,-2.7683,-2.7683,-2.768,-2.7688,-2.769,-2.776,-2.7676,-2.7679,-2.7681,-2.7683,-2.7907,-2.7911,0,0,0,0,0,0,-2.7726,-2.7724,-2.7772,-2.7772,-2.7714,-2.771,-2.7707,-2.7723,-2.7707,-2.7701,-2.7686,-2.7679,-2.7684,-2.7687,-2.769,-2.78,-2.768,-2.7683,-2.7685,-2.7903,-2.7908,-2.7912,0,0,0,0,0,0,-2.7725,-2.7731,-2.7773,-2.7746,-2.775,-2.7715,-2.7733,-2.7725,-2.7733,-2.7705,-2.7698,-2.7702,-2.7682,-2.7685,-2.7743,-2.7799,-2.7684,-2.7687,-2.7898,-2.7905,-2.791,-2.8021,0,0,0,0,0,0,-2.7723,-2.7731,-2.7766,-2.7748,-2.7752,-2.7826,-2.7736,-2.7728,-2.7739,-2.7729,-2.7717,-2.7712,-2.7679,-2.7739,-2.7747,-2.7801,-2.769,-2.7893,-2.7901,-2.7908,-2.8013,-2.803,-2.8046,0,0,0,0,0,-2.7721,-2.7798,-2.7768,-2.7775,-2.7794,-2.7829,-2.7832,-2.7791,-2.7743,-2.7779,-2.776,-2.7712,-2.7791,-2.7746,-2.7754,-2.781,-2.789,-2.7899,-2.7908,-2.8005,-2.8027,-2.8045,0,0,0,0,0,0,-2.7825,-2.7795,-2.7761,-2.7834,-2.7835,-2.7813,-2.7856,-2.7815,-2.783,-2.7821,-2.7771,-2.7769,-2.7836,-2.7828,-2.7778,-2.7901,-2.7832,-2.7843,-2.7904,-2.7924,-2.794,-2.7941,-2.7693,0,0,0,0,0,-2.7856,-2.7886,-2.7858,-2.7925,-2.7927,-2.7892,-2.7906,-2.7874,-2.7874,-2.7874,-2.786,-2.7862,-2.7887,-2.7904,-2.7926,-2.801,-2.8007,-2.8053,-2.8069,-2.8083,-2.8094,-2.814,-2.816,-2.7942,-2.7942,-2.7941,0,0,-2.7921,-2.7908,-2.7931,-2.7946,-2.7943,-2.7976,-2.7893,-2.7932,-2.7956,-2.788,-2.7934,-2.7924,-2.7923,-2.7995,-2.8026,-2.7991,-2.8153,-2.8094,-2.8106,-2.8109,-2.8151,-2.8172,-2.819,-2.7948,-2.7947,-2.7946,0,0,-2.8057,-2.805,-2.8105,-2.8104,-2.81,-2.8075,-2.8089,-2.8073,-2.8063,-2.8117,-2.806,-2.8089,-2.8133,-2.8135,-2.8142,-2.8279,-2.8236,-2.8287,-2.8374,-2.8419,-2.8437,-2.8452,-2.8502,-2.8521,-2.8298,-2.8298,-2.8298,0,-2.8139,-2.8186,-2.814,-2.8182,-2.8191,-2.8122,-2.8179,-2.818,-2.8184,-2.8193,-2.8152,-2.8207,-2.8201,-2.8274,-2.8307,-2.8314,-2.8329,-2.8289,-2.8438,-2.8452,-2.8466,-2.8514,-2.8533,-2.8304,-2.8303,-2.8303,-2.8302,0,-2.8288,-2.8322,-2.8367,-2.8372,-2.8386,-2.8436,-2.8398,-2.8418,-2.8385,-2.8366,-2.8422,-2.8412,-2.8431,-2.8445,-2.8414,-2.8514,-2.8493,-2.8446,-2.8376,-2.8494,-2.8538,-2.8556,-2.8313,-2.8311,-2.8309,-2.8308,0,0,-2.8491,-2.8468,-2.8486,-2.8488,-2.8478,-2.8504,-2.8551,-2.8568,-2.8587,-2.8592,-2.8631,-2.867,-2.8627,-2.8635,-2.8603,-2.8642,-2.8754,-2.8591,-2.859,-2.8623,-2.8865,-2.8902,-2.8924,-2.8724,-2.8727,-2.873,-2.8866,0,-2.8623,-2.8702,-2.8661,-2.8745,-2.8777,-2.8711,-2.8752,-2.8752,-2.8735,-2.876,-2.8741,-2.877,-2.871,-2.8714,-2.875,-2.8733,-2.8802,-2.8722,-2.8762,-2.8764,-2.8767,-2.8947,-2.8986,-2.9115,-2.8883,-2.8886,-2.8888,0,-2.8789,-2.88,-2.8888,-2.8873,-2.8884,-2.8922,-2.8935,-2.8959,-2.8958,-2.8943,-2.8952,-2.8911,-2.8957,-2.8886,-2.895,-2.8897,-2.891,-2.8905,-2.8909,-2.8913,-2.8835,-2.8958,-2.9155,-2.9175,-2.8914,-2.8912,-2.891,0,-2.8931,-2.8968,-2.9025,-2.9028,-2.9012,-2.904,-2.9035,-2.9029,-2.9042,-2.9054,-2.9063,-2.908,-2.909,-2.9105,-2.9071,-2.9022,-2.914,-2.9066,-2.9131,-2.9132,-2.9161,-2.916,-2.9365,-2.9166,-2.9166,-2.9165,-2.9165,0,-2.9085,-2.9141,-2.9088,-2.9124,-2.9186,-2.9138,-2.9201,-2.9189,-2.9184,-2.9217,-2.9161,-2.9194,-2.9145,-2.9173,-2.9146,-2.9204,-2.9209,-2.9199,-2.9192,-2.9206,-2.9207,-2.9216,-2.9207,-2.9171,-2.9169,-2.9168,-2.9168,0,-2.9254,-2.9221,-2.9279,-2.9259,-2.9255,-2.9302,-2.9284,-2.9317,-2.9296,-2.9338,-2.9345,-2.9313,-2.9343,-2.9309,-2.9336,-2.9318,-2.9398,-2.9376,-2.9399,-2.9393,-2.9461,-2.9456,-2.968,-2.9708,-2.949,-2.9492,-2.9494,0,-2.9356,-2.9398,-2.9382,-2.9399,-2.9397,-2.9426,-2.9439,-2.9394,-2.9411,-2.9412,-2.9445,-2.947,-2.9488,-2.9539,-2.9519,-2.954,-2.9519,-2.9597,-2.9522,-2.9535,-2.9523,-2.9522,-2.9527,-2.9613,-2.9615,-2.9617,-2.9619,0,-2.9541,-2.9522,-2.9543,-2.9558,-2.9576,-2.9586,-2.9592,-2.961,-2.9563,-2.9585,-2.9614,-2.9628,-2.9656,-2.9682,-2.9697,-2.9692,-2.965,-2.9642,-2.9659,-2.9675,-2.9687,-2.9683,-2.9443,-2.9638,-2.9636,-2.9635,-2.9634,-2.9633,-2.9681,-2.9715,-2.9709,-2.9735,-2.9734,-2.9742,-2.9772,-2.9754,-2.9777,-2.9796,-2.9768,-2.9806,-2.9803,-2.9819,-2.9819,-2.9849,-2.9816,-2.984,-2.9846,-2.9853,-2.9864,-2.968,-2.9851,-2.9851,-2.985,-2.985,-2.9849,0,-2.9864,-2.9857,-2.9881,-2.9891,-2.9911,-2.9866,-2.9871,-2.9892,-2.9925,-2.9926,-2.9944,-2.9979,-3.0004,-2.9985,-3.0007,-3.0034,-3.0015,-3.0042,-3.0041,-3.0041,-2.9891,-2.9876,-3.0057,-3.0057,-3.0057,-3.0057,-3.0057,-3.0057,-2.9962,-3.0019,-3.0,-3.0056,-3.0049,-3.0084,-3.0091,-3.0098,-3.0099,-3.014,-3.016,-3.0147,-3.014,-3.0161,-3.0183,-3.0176,-3.0188,-3.0223,-3.021,-3.0071,-3.0051,-3.0032,-3.0017,-3.0225,-3.0225,-3.0357,-3.0358,-3.0359]},{"header":{"parameterUnit":"m.s-1","parameterCategory":1,"la1":30.2991,"la2":30.254,"lo1":-89.0895,"lo2":-89.0444,"dy":0.0017,"dx":0.0017,"nx":28,"ny":28,"refTime":"2024-12-11T03:00:00:Z","depth":0,"parameterNumber":3,"parameterNumberName":"V-component_of_WINDS"},"data":[0,0,0,0,0,0,0,0,0,0,0,0,0,0,0,0,0,0,0,0,0,0,0,0,0,0,0,0,0,0,0,0,0,0,0,0,0,0,0,0,0,0,0,0,0,0,0,0,0,0,0,0,0,0,0,0,0,0,-2.2665,-2.2665,0,-2.2697,-2.2697,-2.2697,-2.267,-2.2669,-2.2668,-2.2667,-2.2698,-2.27,-2.2702,0,0,0,0,0,0,0,0,0,0,0,0,0,-2.2579,-2.258,-2.2665,-2.2665,-2.2665,-2.2697,-2.2697,-2.2697,-2.267,-2.2669,-2.2668,-2.2666,-2.2698,-2.27,-2.2702,0,0,0,0,0,0,0,0,0,0,0,0,0,-2.2614,-2.2581,-2.2665,-2.2656,-2.2655,-2.2696,-2.2697,-2.2697,-2.2671,-2.2669,-2.2667,-2.2666,-2.2697,-2.27,-2.2702,-2.2754,0,0,-2.2711,-2.2712,0,0,0,0,0,0,0,0,-2.2612,-2.2617,-2.2657,-2.2656,-2.2656,-2.2678,-2.2678,-2.2716,-2.2671,-2.2665,-2.2667,-2.2665,-2.2693,-2.2696,-2.2705,-2.2755,-2.2756,-2.2711,-2.2713,-2.2714,-2.2715,0,0,0,0,0,0,0,-2.261,-2.2616,-2.2677,-2.2657,-2.2657,-2.265,-2.2653,-2.2685,-2.2688,-2.2665,-2.2663,-2.2667,-2.2692,-2.2703,-2.2706,-2.2757,-2.2711,-2.2714,-2.2715,-2.2717,-2.2851,-2.2852,0,0,0,0,0,0,-2.2608,-2.2614,-2.2676,-2.2678,-2.2629,-2.2653,-2.2656,-2.2672,-2.2687,-2.2688,-2.2669,-2.2666,-2.2699,-2.2703,-2.2707,-2.2769,-2.2714,-2.2717,-2.2718,-2.2849,-2.2851,-2.2853,0,0,0,0,0,0,-2.2606,-2.2614,-2.2675,-2.2645,-2.2653,-2.2656,-2.2674,-2.2674,-2.2684,-2.269,-2.269,-2.2679,-2.2698,-2.2703,-2.2742,-2.2769,-2.2718,-2.2721,-2.2846,-2.2849,-2.2852,-2.2892,0,0,0,0,0,0,-2.2604,-2.2614,-2.2634,-2.2646,-2.2654,-2.2711,-2.2676,-2.2676,-2.269,-2.2686,-2.27,-2.2701,-2.2697,-2.2738,-2.2745,-2.2772,-2.2723,-2.2844,-2.2848,-2.2851,-2.2888,-2.2896,-2.2902,0,0,0,0,0,-2.2601,-2.2643,-2.2635,-2.2642,-2.2679,-2.2712,-2.2717,-2.2712,-2.2692,-2.2712,-2.2715,-2.27,-2.2765,-2.2743,-2.275,-2.2778,-2.2842,-2.2847,-2.2851,-2.2885,-2.2894,-2.2902,0,0,0,0,0,0,-2.2633,-2.2645,-2.2635,-2.2683,-2.2697,-2.2707,-2.2733,-2.2721,-2.2741,-2.2737,-2.2729,-2.2732,-2.2774,-2.278,-2.2755,-2.2829,-2.28,-2.2806,-2.2824,-2.2833,-2.2839,-2.2838,-2.2725,0,0,0,0,0,-2.2646,-2.2672,-2.268,-2.2721,-2.2729,-2.2729,-2.2743,-2.2738,-2.2752,-2.2758,-2.2764,-2.2778,-2.2801,-2.2817,-2.2839,-2.2888,-2.2891,-2.2911,-2.2918,-2.2924,-2.293,-2.2957,-2.2966,-2.2867,-2.2867,-2.2867,0,0,-2.2672,-2.2681,-2.2698,-2.2728,-2.2738,-2.2765,-2.2735,-2.2764,-2.2784,-2.2762,-2.28,-2.2805,-2.282,-2.2865,-2.2885,-2.2871,-2.2958,-2.2929,-2.2934,-2.2936,-2.2962,-2.2971,-2.298,-2.287,-2.2869,-2.2869,0,0,-2.2734,-2.2744,-2.2779,-2.279,-2.2806,-2.2806,-2.2815,-2.2827,-2.283,-2.2868,-2.2852,-2.2875,-2.2916,-2.2927,-2.2938,-2.3004,-2.2991,-2.3011,-2.3048,-2.3075,-2.3083,-2.3089,-2.3114,-2.3123,-2.3016,-2.3017,-2.3017,0,-2.2765,-2.2805,-2.2799,-2.283,-2.2843,-2.2825,-2.2861,-2.2871,-2.2894,-2.2903,-2.2887,-2.2938,-2.2946,-2.2994,-2.301,-2.3019,-2.3029,-2.301,-2.3082,-2.3089,-2.3095,-2.3118,-2.3128,-2.3019,-2.3019,-2.3018,-2.3018,0,-2.2843,-2.2871,-2.2898,-2.292,-2.2936,-2.297,-2.2968,-2.2985,-2.2978,-2.298,-2.3019,-2.3028,-2.3052,-2.3062,-2.3056,-2.3109,-2.31,-2.3083,-2.3055,-2.3107,-2.3129,-2.3138,-2.3022,-2.3022,-2.3021,-2.302,0,0,-2.2927,-2.2945,-2.2955,-2.2966,-2.2982,-2.3003,-2.3035,-2.3059,-2.3074,-2.3089,-2.3116,-2.3151,-2.3135,-2.3148,-2.3142,-2.3165,-2.3218,-2.3145,-2.3145,-2.3159,-2.3278,-2.3292,-2.3302,-2.3209,-2.321,-2.3212,-2.3277,0,-2.299,-2.3047,-2.3042,-2.3096,-2.3122,-2.3105,-2.3133,-2.3146,-2.3148,-2.317,-2.3172,-2.3197,-2.3174,-2.3181,-2.3203,-2.3207,-2.3242,-2.3202,-2.3234,-2.3235,-2.3233,-2.3314,-2.3328,-2.339,-2.3286,-2.3287,-2.3288,0,-2.3072,-2.3092,-2.3149,-2.3161,-2.3172,-2.3197,-2.3219,-2.324,-2.3254,-2.3254,-2.3268,-2.3258,-2.329,-2.326,-2.3304,-2.3277,-2.329,-2.3293,-2.3295,-2.3299,-2.3266,-2.3321,-2.3409,-2.3419,-2.3301,-2.33,-2.3299,0,-2.313,-2.3169,-2.3209,-2.3218,-2.3233,-2.3251,-2.3258,-2.3271,-2.3285,-2.3303,-2.3313,-2.3334,-2.3346,-2.3363,-2.3359,-2.3337,-2.3404,-2.3374,-2.3406,-2.3406,-2.3422,-2.3421,-2.3515,-2.3428,-2.3428,-2.3428,-2.3427,0,-2.3202,-2.3238,-2.3235,-2.3259,-2.3299,-2.3292,-2.3331,-2.3335,-2.3346,-2.3371,-2.3356,-2.3379,-2.3372,-2.3395,-2.3392,-2.343,-2.3435,-2.3436,-2.3435,-2.3438,-2.3438,-2.3447,-2.3443,-2.343,-2.3429,-2.3429,-2.3429,0,-2.3273,-2.3272,-2.3314,-2.3325,-2.3329,-2.3358,-2.3367,-2.3389,-2.339,-2.3421,-2.3428,-2.343,-2.3456,-2.3453,-2.3482,-2.348,-2.3527,-2.352,-2.3523,-2.3522,-2.3554,-2.3552,-2.3658,-2.3672,-2.3575,-2.3576,-2.3577,0,-2.332,-2.3347,-2.3361,-2.3377,-2.3386,-2.3411,-2.3426,-2.342,-2.3436,-2.3454,-2.3474,-2.3499,-2.3519,-2.3561,-2.3565,-2.3587,-2.3581,-2.3617,-2.3585,-2.3587,-2.3583,-2.3582,-2.3585,-2.3624,-2.3625,-2.3626,-2.3627,0,-2.3404,-2.3402,-2.3425,-2.3447,-2.3466,-2.3483,-2.3498,-2.3512,-2.3507,-2.3526,-2.3553,-2.3568,-2.3598,-2.3623,-2.3644,-2.3651,-2.3638,-2.3636,-2.3645,-2.365,-2.365,-2.3652,-2.3542,-2.3634,-2.3634,-2.3633,-2.3633,-2.3632,-2.3465,-2.3489,-2.3502,-2.3528,-2.3539,-2.3554,-2.3576,-2.358,-2.3602,-2.3627,-2.3621,-2.3652,-2.3665,-2.3692,-2.37,-2.3724,-2.3711,-2.3723,-2.3727,-2.373,-2.3735,-2.3646,-2.3727,-2.3727,-2.3727,-2.3727,-2.3727,0,-2.3549,-2.3557,-2.358,-2.3603,-2.3623,-2.3609,-2.3626,-2.3644,-2.3671,-2.3684,-2.3704,-2.3735,-2.3759,-2.3764,-2.3787,-2.3805,-2.38,-2.3811,-2.381,-2.3812,-2.3744,-2.3735,-2.3815,-2.3815,-2.3815,-2.3815,-2.3815,-2.3815,-2.3595,-2.3635,-2.3635,-2.3679,-2.3687,-2.3717,-2.3728,-2.3741,-2.3752,-2.3788,-2.3808,-2.3811,-2.3821,-2.3844,-2.3866,-2.3867,-2.3876,-2.389,-2.3889,-2.3826,-2.3817,-2.3809,-2.38,-2.3892,-2.3892,-2.3955,-2.3956,-2.3956]}]]